星链-2701 (STARLINK-2701 )

导读 | 星芒AI

STARLINK-2701 是 SpaceX 星链计划中的一颗低轨通信卫星,属于第27批发射的星链卫星之一。该卫星旨在为全球用户提供高速互联网服务,尤其关注网络覆盖不足的地区。它运行在约550公里高的近地轨道,具备先进的通信技术和自动避碰系统,以确保运行安全。星链项目通过部署大量卫星,构建全球宽带网络,推动互联网的普及与数字化发展。

基本信息
目录编号:
48656
目录名称:
STARLINK-2701
国际标识:
2021-044U
轨道中心:
EARTH
卫星名称:
星链-2701
卫星全名:
星链-2701 (STARLINK-2701 )
卫星状态:
在轨 (已飞行1618 天)
发射日期:
2021-05-26 UTC
国别 :
美国 (US)
星等 :
--
轨道信息
数据来源 国际轨道数据
星历时间: 2025-10-30T15:07:31+0800
8小时前
查看轨道信息
半长轴: 6925.379km
偏心率: 0.0001367
轨道倾角: 53.055°
近地点辐角 79.744°
升交点赤经 346.972°
平近点角 280.370°
近地点: 546.297km
远地点: 548.191km
周期: 95.593分钟
每日圈数: 15.063902
详细信息
固有亮度:
5
最大亮度:
2.5
卫星平台:
Starlink V1.0
覆盖范围:
全球
运营商:
太空探索技术公司
运营商所在国:
美国
制造商(研发单位):
太空探索技术公司
制造商所在国:
美国
使用方式:
暂无
卫星简介
星链(Starlink)计划是由太空探索技术公司(SpaceX)提出的一个巨型低轨卫星互联网星座项目,计划在2019年至2024年间在太空搭建由约1.2万颗卫星组成的“星链”网络,其中1584颗将部署在地球上空550千米处的近地轨道,并从2020年开始工作。该卫星仍在工作。
2D轨道图
3D轨道图
轨道高度分析图
轨道倾角分析图
轨道综合分析图
查看轨道综合分析图